Wetbulb
50.48 44.34 42.04 44.59 45.45 45.62 45.48 44.97 44.36 46.47 48.83 48.61 47.81 48.37 50.21 51.97 52.09 52.81 53.38 53.60 53.50 54.21 56.40 58.09 64.10 66.15 69.53 71.28 72.66 74.47 73.25 74.07 71.35 72.53 71.48 72.37 72.27 73.30 71.41 64.84 65.43 69.51 72.29 72.17
46.20 41.77 45.56 46.94 46.32 45.52 45.31 44.35 45.06 47.75 49.62 48.95 48.72 48.14 51.00 52.29 52.69 53.73 54.24 53.84 54.23 54.51 55.82 57.30 63.19 66.84 67.76 69.61 73.02 74.04 74.94 75.30 75.79 74.24 74.89 73.90 72.44 73.81 73.76 74.38 74.81 74.09 72.45 74.29
43.04 45.18 46.88 45.50 44.82 44.38 44.73 43.97 45.13 45.93 48.33 49.52 48.22 46.39 49.06 51.71 53.31 53.95 53.56 54.23 54.99 55.72 55.61 57.19 63.51 65.30 67.30 68.23 71.16 72.27 74.74 75.38 76.08 76.30 73.69 74.59 75.46 74.11 74.21 74.21 74.23 75.03 74.92 74.76
45.21 47.79 45.61 44.15 43.85 45.36 42.61 47.34 47.21 46.97 45.46 41.50 48.56 39.83 48.61 50.90 51.26 52.18 52.78 54.16 54.39 55.38 56.58 57.21 62.57 64.81 65.54 68.56 68.71 70.04 71.65 74.68 74.93 75.96 75.12 73.49 71.06 69.64 70.46 68.91 71.38 70.18 68.88 68.31
44.28 44.85 44.49 43.37 43.87 46.58 44.95 48.90 47.17 46.93 45.20 44.73 44.75 42.16 46.16 50.84 49.21 50.70 53.11 54.11 55.83 57.70 56.10 57.59 58.78 64.43 66.26 68.50 69.15 70.62 73.51 74.40 75.35 75.40 75.40 71.90 71.90 70.13 67.79 68.64 68.65 70.09 69.58 68.18
47.09 49.32 47.19 46.64 47.21 47.89 49.32 47.46 47.37 46.68 44.59 38.78 43.23 42.55 43.68 47.24 49.90 51.32 53.40 53.54 55.52 56.35 58.32 59.38 63.57 65.59 65.39 67.08 68.20 70.81 71.49 69.82 69.42 69.33 71.86 69.31 67.32 68.15 66.78 68.15 66.73 67.14 68.52 68.88
44.99 45.08 47.55 48.68 46.34 48.25 47.41 45.13 38.40 36.95 37.32 36.65 44.62 42.58 45.41 50.64 52.03 52.51 52.90 53.92 56.08 58.37 60.52 60.98 62.04 63.01 65.26 66.35 69.23 68.64 67.44 67.19 67.17 66.40 65.84 65.44 64.61 64.13 65.30 63.95 64.53 63.99 63.79 64.81
40.50 38.26 45.33 48.72 47.28 44.92 45.55 45.27 39.12 33.09 34.53 37.92 44.45 40.42 44.85 52.64 53.75 54.66 54.65 55.53 56.37 58.56 60.55 60.90 62.16 63.29 65.42 66.40 66.17 65.35 64.98 64.09 63.68 63.29 63.81 64.44 64.87 62.93 63.65 62.06 61.51 61.21 61.04 62.13
41.05 41.16 47.65 49.11 49.03 48.43 45.11 42.54 47.09 42.05 43.55 38.89 41.78 45.43 49.80 52.24 52.36 53.15 54.21 55.48 57.12 58.42 60.53 61.64 62.73 64.28 65.07 64.71 64.29 64.16 63.24 63.42 63.20 63.14 63.67 63.67 62.12 62.78 62.08 62.74 62.44 62.50 64.20 60.85
45.43 39.62 46.12 47.37 49.12 48.56 47.39 48.71 41.82 42.99 35.15 33.44 39.83 42.24 42.57 48.58 50.57 52.13 53.74 55.30 57.50 59.48 60.65 61.43 61.78 62.96 63.07 63.25 63.40 63.16 63.10 62.20 62.52 62.66 62.88 61.84 61.90 61.87 61.68 62.72 61.84 61.40 62.02 62.12
47.17 44.12 42.09 46.45 45.15 43.59 44.03 43.44 45.01 45.96 43.81 37.31 35.67 39.86 48.07 49.31 51.19 50.28 53.81 56.52 58.25 59.10 59.89 60.60 60.92 61.34 61.13 61.07 60.58 61.54 60.88 60.89 61.25 61.38 61.31 61.34 60.69 60.71 61.32 61.22 61.15 60.96 61.80 60.96
47.65 44.75 37.89 42.02 48.25 49.14 48.01 45.48 45.96 39.97 39.64 42.82 40.79 39.51 49.57 51.22 53.12 52.45 51.98 56.97 58.26 59.31 59.50 59.60 59.53 59.51 59.27 59.09 58.96 59.45 60.06 59.80 59.87 59.98 60.03 60.42 60.83 61.00 60.77 60.40 60.33 60.72 59.68 59.92
47.59 43.09 36.74 38.90 44.77 48.47 45.34 46.48 48.22 48.84 47.58 42.43 39.56 38.54 50.33 52.58 51.72 51.43 50.86 53.99 57.04 58.06 58.44 58.29 57.81 57.55 57.65 57.71 57.41 57.22 57.47 57.49 57.54 57.94 58.30 60.12 60.34 59.97 59.98 59.31 59.47 59.04 58.17 57.71
48.62 44.52 40.47 36.59 41.57 45.83 43.55 44.89 46.95 47.41 43.08 41.83 42.52 43.46 47.82 49.86 50.67 52.77 53.29 55.06 54.19 53.86 56.81 57.04 56.57 56.23 56.19 56.17 55.58 55.16 55.52 56.12 56.41 56.07 56.39 56.46 57.28 57.60 57.49 58.04 57.94 57.59 57.30 56.32
47.91 41.30 43.10 40.82 44.83 44.97 46.21 44.82 46.20 43.87 45.10 41.03 42.61 42.95 47.63 49.63 50.41 52.70 54.18 54.53 53.60 53.32 54.62 55.41 55.13 54.99 54.82 54.57 54.24 54.54 54.28 54.57 55.74 54.34 54.39 55.05 55.92 56.39 56.32 56.24 56.85 56.80 56.03 54.99
49.41 42.73 45.05 42.91 44.21 43.17 45.59 46.63 46.48 44.66 44.26 45.07 45.75 42.00 48.90 50.78 50.75 50.21 53.28 54.06 53.61 53.49 54.12 54.22 54.12 53.80 53.73 53.50 53.35 53.42 53.77 53.51 53.84 53.53 52.86 54.35 54.58 54.76 54.78 55.22 55.29 55.21 53.74 53.60
48.47 45.68 44.13 37.64 42.68 42.90 40.99 46.23 46.77 47.43 48.77 47.77 44.01 47.73 51.63 49.33 49.19 50.57 53.53 53.79 52.94 52.13 52.96 52.87 52.95 52.64 52.87 52.48 53.24 52.46 52.23 52.94 52.60 52.16 52.26 52.41 52.78 52.14 52.31 52.36 51.70 51.33 51.21 51.86
47.39 46.70 43.78 37.81 38.51 32.03 44.14 50.26 49.96 47.72 48.19 49.44 48.57 50.19 51.34 50.79 51.78 52.87 53.74 53.24 52.78 52.38 52.33 52.10 51.83 52.12 52.62 52.67 52.08 51.72 51.47 51.25 51.12 50.55 50.59 50.65 49.70 49.12 49.26 48.73 48.29 48.89 49.39 49.67
50.19 47.00 41.05 36.08 37.72 41.87 44.00 46.44 46.64 46.29 45.49 48.91 48.43 49.69 51.40 51.83 51.16 49.72 52.79 53.22 52.23 51.92 51.42 51.19 51.62 51.81 51.88 50.51 49.82 49.04 49.00 49.20 48.45 47.93 47.08 46.97 46.48 45.83 45.92 45.41 45.60 45.86 46.65 47.72
47.63 47.34 42.76 39.85 35.93 33.36 43.21 47.96 49.57 47.74 41.34 49.89 50.16 49.82 51.11 51.55 45.22 46.10 51.10 51.61 51.07 51.09 50.58 50.37 50.87 50.01 48.44 47.27 46.84 46.10 45.65 45.31 44.54 43.80 43.67 43.97 44.19 43.93 43.48 44.05 43.92 45.04 45.07 46.10
40.72 40.73 38.20 36.55 38.45 41.37 47.84 49.41 50.64 40.01 42.63 51.06 51.71 51.83 51.21 48.62 49.19 50.29 50.71 50.03 50.30 50.08 49.09 49.85 48.85 46.75 45.56 45.09 44.42 43.06 42.86 41.87 41.83 42.18 41.75 41.11 42.12 42.88 43.09 43.19 43.58 43.37 45.76 46.16
37.50 38.01 39.84 41.82 38.52 34.71 49.52 48.92 44.60 49.47 52.97 52.13 51.32 50.96 49.52 49.53 50.23 49.86 49.69 48.92 48.59 48.15 48.25 48.66 47.47 45.78 44.78 44.07 42.26 40.54 39.61 40.14 40.70 40.05 39.74 40.27 41.57 41.21 41.78 42.55 42.83 43.83 45.00 45.18
39.98 44.09 42.89 43.81 42.87 51.56 53.00 52.29 53.86 54.13 51.46 51.07 50.80 51.19 50.87 49.58 49.05 49.11 47.87 47.80 46.96 46.70 47.14 48.30 47.07 46.24 45.06 43.09 40.60 37.65 37.49 38.13 38.28 37.92 37.84 38.81 40.35 40.24 40.79 40.50 41.03 42.82 44.51 43.10
46.23 49.44 45.27 44.92 46.70 48.92 50.00 51.46 51.55 52.10 51.00 51.40 51.49 50.54 50.14 48.62 48.13 46.92 46.19 45.89 45.69 46.07 46.11 46.39 45.93 44.65 43.81 42.98 40.50 38.49 38.04 37.76 37.20 36.84 36.75 38.03 38.34 39.18 40.08 40.58 41.24 41.20 41.22 40.94
46.68 47.34 45.70 45.34 47.16 47.55 48.82 50.09 51.24 50.98 51.44 50.55 50.68 49.96 48.40 47.11 45.49 45.02 44.61 44.61 44.89 45.34 45.09 45.02 43.74 42.82 42.20 42.89 42.10 39.86 38.57 37.28 35.90 36.41 36.91 37.28 37.41 38.16 38.49 38.76 39.57 40.17 41.73 41.50
47.92 46.12 44.51 43.64 48.07 47.72 47.44 51.29 51.65 50.03 49.39 49.24 47.78 45.96 45.90 45.34 44.37 44.75 43.69 44.34 44.33 43.87 44.09 43.46 43.03 42.74 41.45 41.21 40.44 40.30 39.12 38.03 36.35 34.86 34.93 35.25 35.40 36.66 36.73 37.32 38.06 39.51 39.20 39.28
MSLP
1001.82 1001.76 1000.13 1000.37 1000.30 999.80 998.85 998.01 997.46 997.09 996.30 996.01 996.79 997.08 996.92 996.87 997.07 996.89 996.97 997.60 998.18 998.48 999.05 999.49 999.81 1000.82 1001.97 1002.93 1003.34 1003.72 1004.34 1005.25 1006.23 1006.78 1007.47 1008.09 1008.28 1008.39 1009.32 1009.76 1010.00 1009.44 1008.17 1008.85
1000.99 999.82 1000.07 999.99 999.61 999.22 998.56 997.54 996.24 995.79 995.54 996.02 996.29 996.74 996.66 996.38 996.12 996.13 996.32 996.94 997.58 998.15 998.59 998.83 999.42 1000.75 1002.01 1003.00 1003.59 1003.90 1004.33 1004.96 1004.91 1005.77 1005.85 1007.07 1007.68 1007.29 1007.84 1008.70 1008.97 1008.83 1008.95 1009.26
999.09 998.64 999.42 998.85 998.56 998.23 997.84 997.19 996.29 995.62 995.52 995.98 996.40 996.65 996.40 995.81 995.54 995.55 996.02 996.52 996.86 997.39 997.94 998.29 999.17 1000.39 1001.51 1002.46 1003.57 1004.10 1004.55 1004.88 1005.21 1005.38 1005.32 1006.31 1007.09 1007.47 1008.15 1008.65 1008.63 1008.36 1008.27 1008.81
998.45 997.93 997.54 997.89 997.24 997.29 996.73 996.79 996.48 996.16 996.30 996.07 996.46 995.95 994.93 994.67 994.71 995.02 995.59 996.27 996.55 996.75 997.29 997.87 998.59 999.83 1000.96 1001.88 1002.86 1003.45 1003.96 1004.44 1005.14 1005.19 1005.37 1005.79 1007.00 1007.67 1007.27 1008.02 1007.84 1008.11 1008.73 1009.30
996.81 996.92 996.41 996.24 996.43 996.33 996.07 996.29 996.77 996.78 996.71 996.77 996.35 995.97 994.16 993.58 993.90 994.41 995.10 995.80 996.04 996.23 996.79 997.43 998.05 999.21 1000.25 1001.74 1002.66 1003.28 1003.94 1004.25 1004.68 1005.18 1005.61 1005.94 1006.86 1006.81 1007.76 1007.31 1007.71 1008.43 1009.02 1009.06
996.63 996.18 995.75 995.13 995.53 995.56 996.10 996.37 996.55 997.20 997.31 996.97 996.80 996.20 994.61 993.71 993.31 993.54 994.21 995.07 995.62 995.88 996.30 996.95 997.51 998.97 1000.38 1001.38 1002.50 1003.32 1004.02 1005.17 1005.29 1005.64 1006.06 1006.97 1006.71 1007.03 1007.88 1008.30 1008.44 1008.80 1009.39 1008.99
995.86 995.27 995.00 994.73 994.80 995.26 995.88 996.34 996.41 996.95 996.76 996.34 996.51 996.04 994.63 994.19 994.31 993.51 993.65 994.51 995.29 995.94 996.92 997.09 998.32 1000.02 1001.07 1002.06 1002.98 1004.33 1004.85 1005.38 1006.17 1006.08 1007.50 1007.65 1007.33 1007.97 1008.62 1008.96 1009.06 1009.31 1009.17 1009.26
995.13 994.72 993.95 993.89 994.18 994.49 995.14 995.90 995.83 995.81 996.30 996.34 996.15 995.07 994.31 994.23 994.28 994.44 994.35 994.27 995.21 996.29 997.40 998.72 999.65 1000.41 1001.80 1003.38 1004.43 1005.27 1005.92 1006.20 1006.64 1007.04 1007.86 1008.00 1007.99 1008.51 1008.72 1009.31 1009.70 1009.87 1010.04 1009.83
994.78 994.03 994.05 994.10 994.00 994.33 994.81 995.08 995.89 995.93 996.43 997.63 995.96 995.79 995.57 995.17 994.76 995.17 995.31 995.23 995.87 996.81 997.90 999.47 1000.47 1001.23 1002.53 1004.02 1005.08 1005.83 1006.43 1006.99 1007.19 1007.63 1008.20 1008.52 1008.53 1009.09 1009.30 1009.62 1009.69 1009.82 1009.82 1010.01
995.13 995.01 994.37 994.52 994.35 994.11 994.11 995.10 995.80 995.96 996.62 997.28 996.91 996.60 997.64 996.67 996.07 996.14 996.19 996.36 996.58 997.35 998.61 1000.28 1001.43 1002.40 1003.60 1004.73 1005.61 1006.34 1007.14 1007.79 1008.03 1008.10 1008.25 1008.68 1008.87 1009.19 1009.60 1009.81 1010.18 1010.26 1010.33 1010.52
995.63 995.97 996.86 996.06 994.29 994.12 994.38 994.58 995.16 996.01 996.42 997.23 998.33 999.14 999.43 998.76 998.40 998.98 996.83 996.92 997.34 998.01 999.09 1000.57 1002.23 1003.66 1004.67 1005.75 1006.66 1007.25 1007.76 1008.16 1008.18 1008.21 1008.57 1009.05 1009.42 1009.59 1009.91 1010.19 1010.31 1010.42 1010.50 1010.28
995.63 996.79 997.78 996.83 995.19 994.40 994.27 994.29 995.60 996.45 996.68 997.21 998.68 1000.65 1000.35 1000.10 1000.32 999.69 998.59 997.44 998.02 999.01 1000.07 1001.41 1002.87 1004.22 1005.17 1005.95 1006.70 1007.36 1007.89 1008.06 1008.25 1008.54 1008.97 1009.36 1009.75 1010.06 1010.19 1010.20 1010.42 1010.31 1010.41 1010.35
997.37 997.04 998.25 998.20 996.55 994.82 993.94 994.10 994.85 996.18 996.84 997.25 998.92 1001.75 1001.91 1001.08 1000.89 1000.62 1001.69 1001.28 998.47 1000.36 1001.08 1002.66 1003.62 1004.24 1005.07 1006.00 1006.84 1007.51 1008.13 1008.48 1008.74 1009.09 1009.39 1009.65 1009.88 1010.11 1010.20 1010.33 1010.27 1010.18 1010.08 1009.91
999.59 998.13 997.90 997.71 996.06 995.36 994.17 993.98 994.61 995.29 996.82 998.20 999.18 1000.39 1000.83 1000.82 1001.34 1001.86 1002.48 1000.98 1002.38 1002.40 1002.07 1003.43 1004.33 1005.10 1006.16 1007.15 1007.81 1008.16 1008.53 1008.83 1009.10 1009.43 1009.66 1009.83 1009.94 1010.11 1010.01 1010.00 1009.92 1009.89 1009.87 1009.86
999.27 998.12 997.97 998.91 997.61 996.25 994.66 994.24 995.31 996.28 997.43 998.75 999.45 999.91 1000.90 1001.56 1001.83 1002.14 1002.17 1002.73 1003.47 1004.64 1004.84 1004.74 1005.65 1006.53 1007.38 1008.34 1008.89 1008.95 1009.28 1009.38 1009.69 1010.01 1010.10 1010.19 1010.20 1010.13 1010.08 1009.97 1009.83 1009.70 1009.76 1009.79
998.13 997.56 997.48 998.38 998.32 997.57 995.26 994.31 995.69 996.63 997.88 999.41 999.23 1000.04 1001.03 1001.32 1001.52 1001.82 1002.28 1002.62 1002.97 1003.85 1004.98 1006.19 1007.17 1007.68 1008.55 1009.33 1009.71 1009.92 1009.99 1010.29 1010.41 1010.63 1010.56 1010.35 1010.12 1010.02 1009.95 1009.80 1009.63 1009.59 1009.66 1009.67
996.98 996.98 997.31 998.62 998.55 997.35 995.83 994.81 995.36 996.12 996.88 997.54 997.60 998.92 1000.11 1001.94 1002.58 1003.16 1001.62 1001.98 1003.14 1004.91 1005.98 1006.88 1007.79 1008.89 1009.94 1010.46 1010.74 1010.64 1010.79 1010.65 1010.59 1010.62 1010.66 1010.39 1010.45 1010.42 1010.30 1010.20 1010.13 1010.08 1009.99 1009.71
997.16 997.23 998.50 998.91 999.77 998.69 996.32 995.49 995.32 995.54 996.76 997.05 996.93 998.55 999.65 1000.73 1002.57 1003.33 1002.53 1003.59 1004.76 1006.05 1007.15 1007.90 1008.91 1010.00 1010.94 1011.30 1011.44 1011.48 1011.35 1011.08 1010.99 1011.05 1010.93 1011.02 1011.11 1011.00 1010.87 1010.77 1010.67 1010.51 1010.21 1009.74
997.32 997.41 998.66 999.40 998.71 997.70 996.88 996.39 995.68 995.77 996.76 997.49 997.55 998.02 999.19 1001.29 1002.90 1004.63 1005.01 1005.51 1006.47 1007.38 1008.36 1009.23 1009.98 1010.82 1011.56 1012.14 1012.39 1012.34 1012.07 1011.90 1011.90 1011.83 1011.98 1012.00 1011.93 1011.71 1011.46 1011.22 1011.00 1010.73 1010.37 1009.81
998.25 998.30 998.88 999.66 998.67 997.44 996.89 996.46 996.18 996.52 997.93 998.68 998.77 998.89 999.99 1001.32 1003.17 1005.73 1006.48 1007.26 1008.10 1008.94 1009.83 1010.22 1010.83 1011.95 1012.90 1013.49 1013.66 1013.34 1013.13 1013.05 1012.89 1013.00 1012.94 1012.84 1012.49 1012.13 1011.78 1011.45 1011.16 1010.84 1010.51 1009.70
999.16 999.16 999.03 999.75 998.82 998.59 998.01 997.75 997.50 997.89 1000.32 1000.29 1000.67 1001.07 1002.01 1003.16 1004.93 1006.65 1007.46 1008.38 1009.13 1009.85 1010.62 1011.08 1012.08 1013.23 1014.11 1014.41 1014.33 1014.08 1013.97 1013.89 1014.03 1013.86 1013.63 1013.31 1012.80 1012.27 1011.92 1011.33 1011.07 1010.65 1009.91 1009.32
999.49 999.75 998.80 998.34 998.91 999.68 999.13 998.78 999.08 1000.68 1001.09 1001.78 1002.51 1003.48 1004.31 1005.50 1006.52 1007.49 1008.42 1009.17 1009.76 1010.53 1011.15 1011.79 1012.62 1013.67 1014.50 1014.88 1014.98 1014.88 1014.82 1014.88 1014.61 1014.38 1013.94 1013.32 1012.71 1012.41 1011.84 1011.26 1010.86 1010.27 1009.64 1009.10
998.46 998.47 998.67 999.02 1000.14 1000.37 1000.23 1000.69 1001.25 1001.75 1002.29 1003.07 1003.61 1004.51 1005.36 1006.29 1007.27 1008.20 1009.13 1009.93 1010.76 1011.40 1011.90 1012.24 1012.80 1013.55 1014.39 1015.29 1015.72 1015.79 1015.87 1015.57 1015.16 1014.68 1014.08 1013.42 1012.75 1012.36 1011.92 1011.38 1010.71 1009.99 1009.49 1009.17
999.08 999.00 999.73 1000.02 1001.37 1001.57 1001.96 1002.26 1002.66 1003.35 1003.82 1004.39 1005.00 1005.95 1006.58 1007.37 1008.37 1009.34 1010.21 1010.88 1011.53 1012.16 1012.50 1012.82 1013.26 1013.73 1014.45 1015.34 1016.02 1016.42 1016.38 1016.01 1015.43 1014.79 1014.21 1013.57 1012.96 1012.36 1011.79 1011.21 1010.73 1010.20 1009.74 1009.29
999.19 999.49 1000.17 1001.21 1002.08 1002.75 1003.27 1003.48 1003.82 1004.53 1004.86 1005.30 1006.25 1006.97 1007.79 1008.61 1009.57 1010.52 1011.30 1011.88 1012.39 1012.84 1013.21 1013.51 1013.90 1014.33 1014.72 1015.08 1015.60 1016.26 1016.38 1016.13 1015.62 1015.03 1014.41 1013.80 1013.25 1012.52 1011.88 1011.40 1010.85 1010.23 1009.68 1009.39
1000.31 1000.38 1001.19 1001.80 1002.59 1003.46 1004.14 1004.32 1004.65 1005.10 1005.76 1006.82 1007.53 1008.27 1009.05 1009.79 1010.62 1011.42 1012.20 1012.80 1013.17 1013.58 1013.89 1014.12 1014.49 1014.77 1014.98 1015.29 1015.72 1015.93 1016.28 1016.16 1015.87 1015.30 1014.73 1014.21 1013.55 1012.82 1012.23 1011.54 1010.62 1010.02 1009.63 1008.94
Wind_Speed
22 19 21 25 25 21 23 22 22 19 21 20 17 14 17 18 17 18 14 12 13 15 15 17 11 14 17 12 8 9 15 18 14 9 8 7 7 6 9 7 12 3 11 13
22 24 24 25 26 26 24 25 23 18 22 11 13 14 16 17 17 15 11 11 13 14 15 17 15 13 14 12 10 8 10 6 7 5 4 3 6 3 7 8 8 9 11 9
26 19 26 26 25 25 23 24 19 14 7 9 9 13 18 17 16 11 9 7 10 12 15 15 17 15 9 12 14 10 11 8 4 5 7 4 5 4 3 4 4 2 2 5
25 26 24 26 26 25 23 22 19 12 12 13 18 15 20 21 18 13 11 8 11 15 16 15 15 17 14 15 14 10 8 12 9 6 6 8 3 5 3 4 4 4 7 3
25 26 25 23 27 26 19 19 18 16 13 12 16 10 15 10 14 15 12 12 11 13 17 18 19 18 15 11 10 6 8 5 7 6 4 7 5 5 3 4 7 6 2 4
27 25 26 25 22 23 16 17 19 16 14 15 18 16 15 4 16 16 18 15 13 10 12 12 13 16 12 7 6 5 10 9 9 11 8 9 10 8 6 5 3 2 1 3
24 28 26 24 19 20 20 17 9 12 12 13 16 18 13 12 5 7 16 16 14 10 12 9 20 13 11 7 10 10 10 10 9 12 9 8 10 9 7 4 5 4 3 3
18 23 28 22 20 21 23 17 12 17 15 15 20 19 11 14 12 5 4 12 14 12 14 11 10 13 15 13 9 9 7 9 10 10 8 7 7 5 4 7 5 4 4 5
21 24 22 24 18 22 20 22 20 17 8 5 7 5 7 2 12 8 10 9 13 11 14 15 11 11 16 13 11 10 10 8 9 9 6 5 6 6 5 5 4 3 3 4
18 14 17 22 18 22 23 20 19 14 16 11 12 14 7 7 14 13 14 12 13 15 19 16 12 13 13 10 10 11 8 7 6 5 4 5 4 3 3 2 3 3 4 5
21 5 9 17 21 20 16 16 13 9 12 6 6 5 6 3 10 15 17 14 13 16 18 17 16 14 13 11 10 7 7 7 5 5 5 4 4 4 4 3 4 4 5 5
20 5 6 14 22 24 22 20 18 7 14 12 6 3 10 12 4 11 15 15 16 18 16 16 16 13 13 13 11 7 5 4 5 4 4 3 2 2 3 4 5 5 6 6
5 7 11 10 8 17 24 22 20 18 5 8 5 6 14 5 10 10 14 15 8 15 17 15 14 13 11 10 8 9 4 6 5 5 4 3 3 4 4 5 6 6 8 8
8 8 9 6 11 16 22 22 16 16 8 9 6 9 8 5 1 9 17 14 16 17 17 12 10 12 12 9 8 7 6 7 7 7 7 6 6 7 7 7 7 7 7 9
6 14 12 12 11 8 18 24 13 8 7 5 7 8 6 1 7 9 10 15 16 10 2 11 12 11 9 8 5 6 6 6 7 7 7 6 6 7 7 7 7 6 6 8
16 12 21 21 18 17 26 13 14 5 11 7 10 12 18 8 5 9 10 19 18 16 14 12 10 8 9 7 7 6 6 7 7 6 8 8 9 10 9 9 9 7 8 9
16 13 16 4 3 10 5 13 18 22 26 22 10 17 17 14 9 12 9 13 14 15 14 12 11 11 9 8 7 8 8 8 8 9 10 10 10 11 10 10 11 10 10 11
6 10 4 8 12 2 1 8 10 9 6 7 3 18 16 17 11 9 10 17 17 14 11 11 11 9 7 7 10 10 10 10 10 11 12 12 13 12 12 11 11 11 11 12
3 8 6 3 4 12 11 7 8 11 8 3 5 8 19 23 23 18 19 18 16 13 12 12 9 7 9 12 12 12 11 12 11 12 12 13 13 13 12 12 11 11 11 12
8 9 7 2 8 6 12 10 6 6 9 8 5 4 18 16 13 11 14 14 14 14 10 10 12 13 12 12 12 11 11 11 11 13 13 13 12 12 12 11 11 10 11 12
7 4 6 5 3 6 11 7 2 7 6 16 16 14 18 17 14 14 14 13 13 12 11 12 11 11 10 11 11 11 11 11 12 12 13 13 12 12 11 12 10 11 11 11
6 7 8 5 7 4 4 7 3 12 13 16 18 19 20 18 15 14 13 12 11 10 9 8 9 9 8 11 11 12 11 12 12 12 13 12 11 10 10 11 10 12 10 11
6 5 4 5 8 10 15 16 16 15 16 16 17 16 16 16 14 13 11 11 10 8 8 7 8 9 8 11 11 12 12 12 12 11 11 12 11 9 10 10 11 9 8 8
6 9 6 9 11 16 14 18 18 18 19 17 17 13 12 13 13 12 10 9 9 8 8 9 9 10 9 8 8 9 10 10 11 11 11 10 10 11 9 8 7 8 7 7
6 6 8 17 17 16 18 16 18 16 16 16 15 15 14 13 13 12 10 9 8 8 9 8 9 9 10 9 10 6 8 9 9 10 10 9 9 10 9 8 8 8 8 8
7 5 6 6 11 15 10 15 17 17 16 16 16 16 14 13 13 12 10 8 9 9 8 8 9 8 9 10 10 10 5 7 8 10 7 8 8 8 8 9 10 9 11 15
Wind_Direction
205 217 216 216 226 226 244 230 220 238 263 188 208 249 234 226 223 243 218 210 233 221 222 233 197 146 131 144 135 138 138 161 166 175 177 187 193 206 153 167 172 200 276 150
208 223 221 220 223 229 235 252 248 217 216 219 206 230 250 240 243 235 231 207 215 213 227 230 183 144 138 142 130 132 126 145 142 165 148 164 237 206 192 174 159 162 166 171
216 207 221 227 227 221 229 241 248 259 175 246 238 253 252 253 247 222 215 228 227 208 214 227 168 158 165 124 128 129 129 142 156 119 101 106 62 12 8 99 153 114 118 156
215 227 203 222 228 226 225 226 245 230 242 234 209 241 235 220 221 199 194 204 211 213 199 214 184 166 159 145 160 136 140 147 151 159 136 107 152 211 129 156 137 106 84 44
219 218 225 208 225 224 231 213 229 244 249 253 261 267 279 161 198 181 184 188 215 194 185 193 211 152 159 148 182 172 115 92 121 125 67 133 187 129 161 82 85 100 117 98
230 215 224 232 212 219 211 237 209 217 227 230 236 253 260 272 194 192 177 189 199 199 185 188 144 145 154 138 147 71 109 86 84 67 78 80 63 59 72 53 104 136 205 154
214 233 216 237 217 198 215 216 201 214 224 236 226 236 252 135 251 320 165 170 189 139 67 105 120 125 118 141 101 94 98 99 78 80 70 63 80 58 82 32 41 36 18 10
222 209 218 213 213 194 206 204 224 203 212 222 223 229 247 181 174 114 135 161 157 124 124 108 107 128 127 106 108 106 97 103 92 83 74 59 40 80 73 62 44 9 356 341
217 225 203 221 204 218 198 213 226 260 287 305 272 217 82 233 123 152 143 137 121 135 113 110 114 116 119 130 133 134 121 107 97 92 95 65 63 50 41 42 31 314 337 339
221 220 234 212 221 220 224 201 215 232 236 221 237 221 159 216 164 177 150 154 150 131 122 120 126 107 105 110 104 102 109 97 106 111 97 80 66 81 64 12 315 321 305 289
223 146 267 278 220 208 221 232 216 243 232 178 237 273 321 183 341 330 162 153 134 132 126 122 110 106 109 105 103 105 129 149 124 95 86 78 33 6 350 334 304 287 290 307
192 199 170 257 234 215 219 217 201 220 255 231 180 167 312 291 230 1 358 148 140 126 124 125 121 135 138 140 138 99 70 101 108 90 71 41 13 318 308 315 302 301 291 284
278 176 193 254 250 256 215 214 192 209 307 242 180 121 225 161 90 62 322 294 120 131 131 124 138 144 127 97 96 102 76 59 41 31 11 15 355 318 302 292 294 307 303 297
314 232 178 246 213 214 209 212 231 211 174 200 191 151 200 210 168 155 127 86 56 4 110 117 119 96 77 70 55 44 37 25 20 5 354 348 343 326 317 304 295 287 300 315
263 219 175 224 260 295 247 197 185 176 109 212 217 252 289 93 329 330 116 107 117 129 139 94 83 81 91 71 48 45 20 9 13 347 333 320 311 300 297 295 293 299 308 302
244 216 224 157 149 228 234 180 148 146 215 284 274 243 274 108 83 15 206 161 148 146 130 108 100 83 63 32 22 10 12 6 346 334 317 318 323 317 314 312 310 320 321 304
199 213 217 177 24 1 241 191 166 188 170 200 189 167 164 165 128 185 190 117 109 88 103 83 76 63 39 13 0 14 355 349 336 335 324 328 330 322 329 330 326 327 318 307
222 167 80 144 138 135 174 221 243 212 109 316 83 147 162 143 142 186 78 94 101 94 88 75 64 49 28 4 15 357 349 341 342 334 335 339 333 327 327 329 321 316 307 303
48 101 98 101 192 129 131 145 150 170 163 49 47 105 112 105 88 62 61 69 75 79 76 69 63 49 36 22 7 353 341 347 339 342 342 337 332 323 321 314 312 306 308 304
90 90 90 175 171 126 118 93 75 160 91 57 8 63 119 133 108 100 92 87 79 72 62 63 51 46 28 17 360 346 347 340 348 345 335 327 321 318 313 310 307 305 290 287
95 67 111 224 157 76 81 85 85 181 91 79 70 70 71 71 99 104 95 86 79 79 61 65 62 54 27 12 356 353 345 352 342 334 329 324 316 316 307 302 295 290 294 301
121 185 201 130 98 94 100 134 53 104 98 91 88 92 98 106 110 101 98 88 78 72 75 69 62 65 34 21 7 358 354 344 337 334 325 317 323 323 314 311 312 297 296 291
92 61 39 49 92 77 77 87 99 100 103 95 96 101 108 107 103 97 87 89 81 71 67 46 49 60 57 38 22 8 352 342 335 327 327 321 323 320 318 313 302 308 320 321
65 64 127 96 103 98 82 94 89 97 97 94 87 91 94 96 93 89 88 81 80 66 53 46 39 31 44 37 19 18 351 339 330 329 325 326 327 326 315 321 320 321 318 308
94 93 93 108 92 99 107 101 107 105 104 101 99 94 94 97 98 100 91 79 75 63 52 45 36 30 23 19 32 26 1 351 342 332 329 335 333 325 335 325 319 311 300 293
41 116 133 131 134 109 114 121 119 108 105 103 102 97 93 98 98 94 85 69 71 62 50 45 40 31 22 29 21 19 6 356 344 352 336 337 329 335 334 330 324 299 282 289